[[{"header":{"parameterUnit":"m.s-1","parameterCategory":1,"la1":30.2992,"la2":30.254,"lo1":-89.0895,"lo2":-89.0443,"dy":0.0025,"dx":0.0025,"nx":19,"ny":19,"refTime":"2026-03-23T03:00:00:Z","depth":0,"parameterNumber":2,"parameterNumberName":"U-component_of_WINDS"},"data":[0,0,0,-2.1162,-2.1164,-2.1266,-2.1266,-2.1406,-2.1407,0,0,0,0,0,0,0,0,0,0,0,-2.1135,-2.1136,-2.1162,-2.1164,-2.1266,-2.1266,-2.1406,-2.1407,0,0,0,0,0,0,0,0,0,0,0,-2.1135,-2.1136,-2.1137,-2.1165,-2.1266,-2.1266,-2.1405,-2.1326,0,0,0,0,0,0,0,0,0,0,-2.1226,-2.1204,-2.1136,-2.1137,-2.1165,-2.1266,-2.1266,-2.1322,-2.1331,-2.1363,0,-2.1391,0,-2.1401,-2.1417,-2.1417,0,0,0,-2.1163,-2.1196,-2.122,-2.1137,-2.1166,-2.1265,-2.122,-2.1327,-2.1337,-2.1375,-2.1393,-2.1398,-2.1403,-2.1418,-2.1418,-2.1607,-2.1608,0,0,-2.1157,-2.1156,-2.1213,-2.1227,-2.1209,-2.1216,-2.1223,-2.1333,-2.1353,-2.1393,-2.1401,-2.1406,-2.1419,-2.142,-2.1606,-2.1607,0,0,0,-2.1142,-2.1152,-2.1173,-2.1221,-2.1239,-2.1219,-2.1227,-2.1348,-2.1355,-2.1402,-2.1407,-2.142,-2.1421,-2.1605,-2.1606,-2.1652,0,0,0,-2.1139,-2.1143,-2.1171,-2.1171,-2.1237,-2.1294,-2.1239,-2.1347,-2.1359,-2.1407,-2.142,-2.1423,-2.1604,-2.1606,-2.1649,-2.1674,0,0,0,-2.1128,-2.1142,-2.1157,-2.1171,-2.1214,-2.1292,-2.1305,-2.135,-2.1363,-2.1417,-2.1423,-2.1603,-2.1605,-2.1646,-2.1669,-2.1724,0,0,0,-2.1116,-2.1197,-2.1158,-2.1252,-2.1213,-2.1319,-2.1305,-2.1384,-2.1436,-2.142,-2.1604,-2.1606,-2.1645,-2.1666,-2.172,-2.1769,-2.1789,0,0,-2.1218,-2.121,-2.1265,-2.1233,-2.1345,-2.1304,-2.1424,-2.1474,-2.1482,-2.1565,-2.157,-2.165,-2.1669,-2.1723,-2.1903,-2.1919,0,0,0,-2.1297,-2.1337,-2.1367,-2.1416,-2.1455,-2.1491,-2.1523,-2.1542,-2.1613,-2.1523,-2.1685,-2.1696,-2.1728,-2.1751,-2.1765,-2.1793,-2.1617,-2.1617,-2.1617,-2.144,-2.1444,-2.1536,-2.1553,-2.1601,-2.1633,-2.1673,-2.1705,-2.1695,-2.1734,-2.1758,-2.1867,-2.1894,-2.1905,-2.1934,-2.1785,-2.1785,-2.1785,-2.1785,-2.1591,-2.1648,-2.1634,-2.1717,-2.1723,-2.1794,-2.183,-2.1821,-2.189,-2.1848,-2.1877,-2.1831,-2.1922,-2.1948,-2.1789,-2.1788,-2.1788,-2.1787,-2.1787,-2.1685,-2.1713,-2.1734,-2.1806,-2.1861,-2.1877,-2.1943,-2.1946,-2.1949,-2.1977,-2.2005,-2.2004,-2.2004,-2.199,-2.199,-2.1991,-2.1991,-2.1991,-2.1992,-2.1774,-2.1796,-2.1851,-2.19,-2.1932,-2.1976,-2.201,-2.2043,-2.2081,-2.2078,-2.2078,-2.2066,-2.193,-2.1895,-2.1998,-2.1997,-2.1996,-2.1995,-2.1995,-2.1925,-2.1892,-2.1976,-2.2008,-2.2067,-2.2123,-2.2126,-2.2193,-2.2221,-2.2255,-2.2237,-2.2136,-2.2128,-2.2117,-2.2089,-2.2235,-2.2235,-2.2235,-2.2235,-2.2005,-2.2001,-2.2088,-2.214,-2.2191,-2.2202,-2.2301,-2.233,-2.2355,-2.2373,-2.2352,-2.2315,-2.2304,-2.2303,-2.2288,-2.2262,-2.2449,-2.2449,-2.2449,-2.2098,-2.2099,-2.2181,-2.2202,-2.2249,-2.2291,-2.2383,-2.2446,-2.2468,-2.2458,-2.2387,-2.2378,-2.2318,-2.2298,-2.2286,-2.2263,-2.2215,0,0]},{"header":{"parameterUnit":"m.s-1","parameterCategory":1,"la1":30.2992,"la2":30.254,"lo1":-89.0895,"lo2":-89.0443,"dy":0.0025,"dx":0.0025,"nx":19,"ny":19,"refTime":"2026-03-23T03:00:00:Z","depth":0,"parameterNumber":3,"parameterNumberName":"V-component_of_WINDS"},"data":[0,0,0,2.6344,2.6345,2.637,2.637,2.6387,2.6387,0,0,0,0,0,0,0,0,0,0,0,2.6329,2.6329,2.6344,2.6345,2.637,2.637,2.6387,2.6387,0,0,0,0,0,0,0,0,0,0,0,2.6329,2.6329,2.6329,2.6345,2.637,2.637,2.6387,2.6373,0,0,0,0,0,0,0,0,0,0,2.6352,2.633,2.6329,2.6329,2.6345,2.637,2.637,2.6373,2.6374,2.637,0,2.6366,0,2.6377,2.6388,2.6388,0,0,0,2.635,2.6329,2.6343,2.6329,2.6345,2.6369,2.636,2.6374,2.6375,2.6372,2.6366,2.6367,2.6377,2.6388,2.6388,2.6351,2.635,0,0,2.6349,2.6329,2.6342,2.6344,2.634,2.6359,2.6361,2.6375,2.6367,2.6366,2.6368,2.6378,2.6388,2.6388,2.6351,2.6351,0,0,0,2.6341,2.6328,2.6342,2.6343,2.6348,2.636,2.6361,2.6366,2.6372,2.6368,2.6378,2.6388,2.6388,2.6352,2.6351,2.6311,0,0,0,2.6341,2.6324,2.6341,2.6329,2.6348,2.6358,2.6352,2.6371,2.6374,2.6378,2.6388,2.6388,2.6352,2.6351,2.6313,2.6295,0,0,0,2.633,2.6323,2.6324,2.6328,2.6338,2.6358,2.6365,2.6372,2.6379,2.6388,2.6388,2.6353,2.6352,2.6315,2.6298,2.6279,0,0,0,2.6313,2.6287,2.6323,2.6298,2.6338,2.6334,2.6365,2.6363,2.6366,2.6388,2.6352,2.6351,2.6316,2.63,2.6281,2.6259,2.6248,0,0,2.6269,2.6281,2.6268,2.6301,2.6285,2.6332,2.631,2.633,2.6348,2.6349,2.6348,2.6313,2.6298,2.6279,2.6197,2.6188,0,0,0,2.6247,2.6237,2.6238,2.624,2.6256,2.6268,2.6294,2.6302,2.6304,2.6345,2.6302,2.6294,2.6284,2.6274,2.6266,2.6258,2.6346,2.6346,2.6346,2.6155,2.6182,2.6162,2.6191,2.6193,2.6221,2.6225,2.624,2.6265,2.6254,2.6254,2.6201,2.6189,2.6183,2.6175,2.6245,2.6245,2.6245,2.6245,2.6093,2.6082,2.6118,2.6111,2.6139,2.6133,2.6159,2.6177,2.6175,2.6203,2.6195,2.6222,2.6173,2.6167,2.6242,2.6243,2.6243,2.6243,2.6244,2.6034,2.6034,2.6045,2.6053,2.6055,2.6086,2.6083,2.6108,2.6132,2.6124,2.6126,2.6127,2.613,2.6124,2.6124,2.6124,2.6124,2.6123,2.6123,2.5968,2.5982,2.5977,2.5994,2.5999,2.601,2.6039,2.6045,2.6058,2.6076,2.6076,2.6101,2.6164,2.6178,2.612,2.6121,2.6121,2.6122,2.6122,2.5892,2.5914,2.5905,2.5911,2.5933,2.5934,2.5968,2.5977,2.5986,2.5983,2.6011,2.6054,2.6067,2.6073,2.6085,2.6007,2.6007,2.6007,2.6007,2.5841,2.5851,2.5849,2.5857,2.5868,2.5898,2.5887,2.591,2.5937,2.5943,2.5959,2.5978,2.5983,2.5993,2.6001,2.6012,2.5917,2.5917,2.5916,2.5795,2.5808,2.5794,2.5822,2.5842,2.5858,2.5848,2.5855,2.589,2.5913,2.5949,2.5953,2.5983,2.5992,2.6014,2.6025,2.6047,0,0]}]]